Location: Broletto
(44.6000°N, 10.5833°E)
Time: 01:01:42
(UTC+00:00)

ERS-1 Rocket - Pass Details

Date: 18 April 2021
Orbit: 753 x 758 km, 98.4° (Epoch: 07 May)

Event Time Altitude Azimuth Distance (km) Brightness Sun altitude
Exits shadow 20:54:40 83° 128° (SE) 765 2.8 -25.6°
Maximum altitude 20:54:50 86° 76° (ENE) 762 2.8 -25.7°
Drops below altitude 10° 20:59:53 10° 347° (NNW) 2,287 6.3 -26.2°
Sets 21:02:11 0° 347° (NNW) 3,216 7.2 -26.5°
